NICK1: Arkansas River nr Nickerson, KS

Data processed at Fri Dec 08 2017 23:11


All information presented herein is the property of the government of the United States of America and may be revised or deleted at any time without prior notice.
Dissemination of this information without the expressed written consent of the Public Affairs Office, Tulsa District U.S. Army Corps of Engineers is strictly prohibited.
These data are gathered electronically and, as presented, have not undergone any form of quality control. These data are not guaranteed to be valid or correct.
Go to home page.
Go to station list.

Upstream stations:

Downstream station:
Previous Day
Next Day
Current Day
    
SHEF ID:       NICK1     ARKANSAS R NR NICKERSON, KS
STATION TYPE:  

               PRECIP     STAGE  RIV-FLOW   CONDUCT  BAT-LOAD
                   in        ft       cfs   umho/cm      volt
              Ccp-Rev   Ccp-Rev   Ccp-Rev   Ccp-Rev   Ccp-Rev
(US/Central)
12/06 00:00      0.00      9.04       103    150804     12.09
12/06 01:00      0.00      9.04       103    161645     12.09
12/06 02:00      0.00      9.04       103    155578     12.09
12/06 03:00      0.00      9.04        89    143381     12.09
12/06 04:00      0.00      9.04        89    147690     12.09
12/06 05:00      0.00      9.04        89    150363     12.01
12/06 06:00      0.00      9.04        89    146990     12.01
12/06 07:00      0.00      9.04        89    163154     12.01
12/06 08:00      0.00      9.04        89    145226     11.06
12/06 09:00      0.00      9.04        89    145503     11.93
12/06 10:00      0.00      9.04        89    140062     12.65
12/06 11:00      0.00      9.04        89    150633     13.13
12/06 12:00      0.00      9.04        89    150354     13.29
12/06 13:00      0.00      9.04        89    147119     13.53
12/06 14:00      0.00      9.04        89    155090     13.68
12/06 15:00      0.00      9.03        88    146707     13.68
12/06 16:00      0.00      9.03        88    146837     13.60
12/06 17:00      0.00      9.03        88    155081     13.53
12/06 18:00      0.00      9.03        88    149755     12.81
12/06 19:00      0.00      9.03        88    157707     12.25
12/06 20:00      0.00      9.03        88    155849     12.17
12/06 21:00      0.00      9.03        88    155225     12.17
12/06 22:00      0.00      9.03        88    151780     12.17
12/06 23:00      0.00      9.03        88    156616     12.17